Location: Cudham
(51.3000°N, 0.0667°E)
Time: 04:54:14
(UTC+00:00)

Cosmos 44 - Pass Details

Date: 19 May 2025
Orbit: 589 x 763 km, 65.1° (Epoch: 13 June)

Event Time Altitude Azimuth Distance (km) Brightness Sun altitude
Rises 21:14:44 0° 317° (NW) 2,896 8.7 -10.4°
Reaches altitude 10° 21:16:59 10° 314° (NW) 2,009 7.2 -10.7°
Maximum altitude 21:21:27 61° 234° (SW) 735 3.4 -11.1°
Enters shadow 21:25:14 15° 157° (SSE) 1,754 4.7 -11.4°
